Weather History for KCHS - September, 2013

Change the Weather History Date:

Wednesday, September 18, 2013

  Actual Average Record
Temperature  
Mean Temperature 72 °F 76 °F  
Max Temperature 81 °F 84 °F 96 °F (1942)
Min Temperature 62 °F 67 °F 55 °F (2001)
Degree Days  
Heating Degree Days 0 0  
Month to date heating degree days 0 0  
Since 1 July heating degree days 0 0  
Cooling Degree Days 7 11  
Month to date cooling degree days 280 227  
Year to date cooling degree days 2135 2032  
Growing Degree Days 22 (Base 50)    
Moisture  
Dew Point 56 °F    
Average Humidity 63    
Maximum Humidity 87    
Minimum Humidity 39    
Precipitation  
Precipitation 0.00 in 0.20 in 1.31 in (2000)
Month to date precipitation 2.70 4.02  
Year to date precipitation 48.76 39.66  
Sea Level Pressure  
Sea Level Pressure 30.18 in    
Wind  
Wind Speed 9 mph (NE)    
Max Wind Speed 18 mph    
Max Gust Speed 25 mph    
Visibility 10 miles    
Events      
T = Trace of Precipitation, MM = Missing Value Source: NWS Daily Summary

Daily Weather History Graph

Daily Weather History Graph

Search for Another Location

Airport or City:

Trip Planner

Search our weather history database for the weather conditions in past years. The results will help you decide how hot, cold, wet, or windy it might be!

Date:

Astronomy

Sep. 18, 2013 Rise Set
Actual Time 7:05 AM EDT 7:21 PM EDT
Civil Twilight 6:41 AM EDT 7:46 PM EDT
Nautical Twilight 6:12 AM EDT 8:15 PM EDT
Astronomical Twilight 5:43 AM EDT 8:44 PM EDT
Moon 6:45 PM EDT (9/18) 6:07 AM EDT (9/18)
Length of Visible Light 13h 05m
Length of Day
12h 16m
Waxing Gibbous, 99% of the Moon is Illuminated
Sep 18
Waxing Gibbous
Sep 19
Full
Sep 26
Last Quarter
Oct 4
New
Oct 11
First Quarter

Hourly Weather History & Observations

Time (EDT) Temp. Dew Point Humidity Pressure Visibility Wind Dir Wind Speed Gust Speed Precip Events Conditions
12:56 AM 69.1 °F 62.1 °F 78% 30.18 in 10.0 mi NNE 8.1 mph - N/A   Clear
1:56 AM 68.0 °F 62.1 °F 81% 30.18 in 10.0 mi NNE 6.9 mph - N/A   Clear
2:56 AM 66.9 °F 61.0 °F 81% 30.17 in 10.0 mi NE 9.2 mph - N/A   Partly Cloudy
3:56 AM 66.0 °F 60.1 °F 81% 30.17 in 10.0 mi NNE 10.4 mph - N/A   Partly Cloudy
4:56 AM 64.9 °F 60.1 °F 84% 30.17 in 10.0 mi NNE 11.5 mph - N/A   Scattered Clouds
5:56 AM 64.0 °F 59.0 °F 84% 30.18 in 10.0 mi NNE 9.2 mph - N/A   Partly Cloudy
6:56 AM 63.0 °F 55.0 °F 75% 30.20 in 10.0 mi NNE 9.2 mph - N/A   Partly Cloudy
7:56 AM 63.0 °F 54.0 °F 72% 30.21 in 10.0 mi NNE 9.2 mph - N/A   Partly Cloudy
8:56 AM 66.0 °F 53.1 °F 63% 30.22 in 10.0 mi NE 9.2 mph - N/A   Scattered Clouds
9:56 AM 71.1 °F 53.1 °F 53% 30.23 in 10.0 mi NNE 15.0 mph - N/A   Scattered Clouds
10:56 AM 75.0 °F 54.0 °F 48% 30.23 in 10.0 mi NNE 15.0 mph 20.7 mph N/A   Scattered Clouds
11:56 AM 77.0 °F 54.0 °F 45% 30.21 in 10.0 mi NNE 12.7 mph 20.7 mph N/A   Scattered Clouds
12:56 PM 79.0 °F 55.0 °F 44% 30.20 in 10.0 mi North 11.5 mph 17.3 mph N/A   Scattered Clouds
1:56 PM 79.0 °F 55.9 °F 45% 30.19 in 10.0 mi NE 11.5 mph - N/A   Scattered Clouds
2:56 PM 78.1 °F 51.1 °F 39% 30.17 in 10.0 mi NE 13.8 mph - N/A   Mostly Cloudy
3:56 PM 78.1 °F 51.1 °F 39% 30.15 in 10.0 mi NE 11.5 mph - N/A   Mostly Cloudy
4:56 PM 77.0 °F 53.1 °F 43% 30.15 in 10.0 mi ENE 9.2 mph - N/A   Mostly Cloudy
5:56 PM 75.9 °F 52.0 °F 43% 30.14 in 10.0 mi North 8.1 mph - N/A   Mostly Cloudy
6:56 PM 73.9 °F 54.0 °F 50% 30.15 in 10.0 mi NE 5.8 mph - N/A   Mostly Cloudy
7:56 PM 71.1 °F 55.9 °F 59% 30.15 in 10.0 mi NE 4.6 mph - N/A   Mostly Cloudy
8:56 PM 69.1 °F 55.9 °F 63% 30.16 in 10.0 mi NE 5.8 mph - N/A   Mostly Cloudy
9:56 PM 69.1 °F 55.0 °F 61% 30.17 in 10.0 mi NNE 5.8 mph - N/A   Scattered Clouds
10:56 PM 68.0 °F 55.9 °F 65% 30.17 in 10.0 mi NE 5.8 mph - N/A   Scattered Clouds
11:56 PM 66.9 °F 57.0 °F 70% 30.16 in 10.0 mi NNE 3.5 mph - N/A   Scattered Clouds